| time (UTC) | temp F | wind direction | speed MPH | gust MPH | rain 1hr in | rain 24hr in | rain mn in | humidity % | barometer mb |
| 20260506191522 | 55 | 0.0 | 0.0 | 0.00 | 0.00 | 0.00 | 89 | 1004.8 | |
| 20260506190522 | 55 | 0.0 | 0.0 | 0.00 | 0.00 | 0.00 | 88 | 1004.7 | |
| 20260506185518 | 55 | 0.0 | 0.0 | 0.00 | 0.00 | 0.00 | 88 | 1004.6 | |
| 20260506184516 | 55 | 0.0 | 0.0 | 0.00 | 0.00 | 0.00 | 88 | 1004.4 | |
| 20260506183515 | 55 | 0.0 | 0.0 | 0.00 | 0.00 | 0.00 | 88 | 1004.3 | |
| 20260506182534 | 56 | 0.0 | 0.0 | 0.00 | 0.00 | 0.00 | 88 | 1004.2 | |
| 20260506181510 | 56 | 0.0 | 0.0 | 0.00 | 0.00 | 0.00 | 87 | 1004.2 | |
| 20260506180510 | 56 | 0.0 | 0.0 | 0.00 | 0.00 | 0.00 | 87 | 1004.0 | |
| 20260506175508 | 56 | 0.0 | 0.0 | 0.00 | 0.00 | 0.00 | 86 | 1003.8 | |
| 20260506174505 | 57 | 0.0 | 0.0 | 0.00 | 0.00 | 0.00 | 86 | 1003.7 | |
| 20260506173003 | 57 | 0.0 | 0.0 | 0.00 | 0.00 | 0.00 | 86 | 1003.4 | |
| 20260506171957 | 58 | 0.0 | 0.0 | 0.00 | 0.00 | 0.00 | 86 | 1003.3 | |
| 20260506171001 | 58 | 0.0 | 0.0 | 0.00 | 0.00 | 0.00 | 86 | 1003.3 | |
| 20260506165956 | 58 | 0.0 | 0.0 | 0.00 | 0.00 | 0.00 | 86 | 1003.3 | |
| 20260506164954 | 58 | 0.0 | 0.0 | 0.00 | 0.00 | 0.00 | 87 | 1003.3 | |
| 20260506163953 | 58 | 0.0 | 0.0 | 0.00 | 0.00 | 0.00 | 87 | 1003.3 | |
| 20260506162951 | 58 | 0.0 | 0.0 | 0.00 | 0.00 | 0.00 | 87 | 1003.4 | |
| 20260506161950 | 58 | 0.0 | 0.0 | 0.00 | 0.00 | 0.00 | 87 | 1003.5 | |
| 20260506160946 | 58 | 0.0 | 0.0 | 0.00 | 0.00 | 0.00 | 87 | 1003.5 | |
| 20260506155945 | 58 | 0.0 | 0.0 | 0.00 | 0.00 | 0.00 | 86 | 1003.6 | |
| 20260506154943 | 58 | 0.0 | 0.0 | 0.00 | 0.00 | 0.00 | 86 | 1003.6 | |
| 20260506153940 | 58 | 0.0 | 0.0 | 0.00 | 0.00 | 0.00 | 86 | 1003.5 | |
| 20260506152959 | 58 | 0.0 | 0.0 | 0.00 | 0.00 | 0.00 | 86 | 1003.5 | |
| 20260506151937 | 59 | 0.0 | 0.0 | 0.00 | 0.00 | 0.00 | 86 | 1003.6 | |
| 20260506150957 | 60 | 0.0 | 0.0 | 0.00 | 0.00 | 0.00 | 85 | 1003.7 | |
| 20260506145932 | 61 | 0.0 | 0.0 | 0.00 | 0.00 | 0.00 | 83 | 1003.5 | |
| 20260506144930 | 62 | 0.0 | 0.0 | 0.00 | 0.00 | 0.00 | 83 | 1003.1 | |
| 20260506143929 | 62 | 0.0 | 0.0 | 0.00 | 0.00 | 0.00 | 83 | 1003.1 | |
| 20260506142926 | 62 | 0.0 | 0.0 | 0.00 | 0.00 | 0.00 | 82 | 1003.1 | |
| 20260506141925 | 62 | 0.0 | 0.0 | 0.00 | 0.00 | 0.00 | 82 | 1003.1 | |
| 20260506140922 | 63 | 0.0 | 0.0 | 0.00 | 0.00 | 0.00 | 81 | 1003.1 | |
| 20260506135943 | 64 | 0.0 | 0.0 | 0.00 | 0.00 | 0.00 | 78 | 1002.9 | |
| 20260506134917 | 65 | 0.0 | 0.0 | 0.00 | 0.00 | 0.00 | 75 | 1002.5 | |
| 20260506133913 | 66 | 0.0 | 0.0 | 0.00 | 0.00 | 0.00 | 72 | 1002.4 | |
| 20260506132935 | 67 | 0.0 | 0.0 | 0.00 | 0.00 | 0.00 | 68 | 1002.4 | |
| 20260506131912 | 68 | 0.0 | 0.0 | 0.00 | 0.00 | 0.00 | 65 | 1002.1 | |
| 20260506130911 | 69 | 0.0 | 0.0 | 0.00 | 0.00 | 0.00 | 63 | 1002.1 | |
| 20260506125907 | 70 | 0.0 | 0.0 | 0.00 | 0.00 | 0.00 | 62 | 1002.1 | |
| 20260506124905 | 71 | 0.0 | 0.0 | 0.00 | 0.00 | 0.00 | 61 | 1002.0 | |
| 20260506123904 | 72 | 0.0 | 0.0 | 0.00 | 0.00 | 0.00 | 60 | 1001.9 | |
| 20260506122903 | 72 | 0.0 | 0.0 | 0.00 | 0.00 | 0.00 | 60 | 1001.9 | |
| 20260506121900 | 72 | 0.0 | 0.0 | 0.00 | 0.00 | 0.00 | 62 | 1002.0 | |
| 20260506120918 | 71 | 0.0 | 0.0 | 0.00 | 0.00 | 0.00 | 62 | 1002.0 | |
| 20260506115855 | 71 | 0.0 | 0.0 | 0.00 | 0.00 | 0.00 | 63 | 1002.0 | |
| 20260506114853 | 71 | 0.0 | 0.0 | 0.00 | 0.00 | 0.00 | 64 | 1002.0 | |
| 20260506113913 | 71 | 0.0 | 0.0 | 0.00 | 0.00 | 0.00 | 64 | 1002.1 | |
| 20260506112850 | 71 | 0.0 | 0.0 | 0.00 | 0.00 | 0.00 | 63 | 1002.0 | |
| 20260506111910 | 71 | 0.0 | 0.0 | 0.00 | 0.00 | 0.00 | 63 | 1002.0 | |
| 20260506110845 | 71 | 0.0 | 0.0 | 0.00 | 0.00 | 0.00 | 63 | 1002.1 | |
| 20260506105905 | 71 | 0.0 | 0.0 | 0.00 | 0.00 | 0.00 | 62 | 1002.2 | |
| 20260506104844 | 71 | 0.0 | 0.0 | 0.00 | 0.00 | 0.00 | 64 | 1002.4 | |
| 20260506103842 | 71 | 0.0 | 0.0 | 0.00 | 0.00 | 0.00 | 64 | 1002.4 | |
| 20260506102837 | 70 | 0.0 | 0.0 | 0.00 | 0.00 | 0.00 | 66 | 1002.5 | |
| 20260506101855 | 69 | 0.0 | 0.0 | 0.00 | 0.00 | 0.00 | 69 | 1002.5 | |
| 20260506100858 | 69 | 0.0 | 0.0 | 0.00 | 0.00 | 0.00 | 69 | 1002.5 | |
| 20260506095831 | 68 | 0.0 | 0.0 | 0.00 | 0.00 | 0.00 | 70 | 1002.5 | |
| 20260506094830 | 67 | 0.0 | 0.0 | 0.00 | 0.00 | 0.00 | 72 | 1002.5 | |
| 20260506093849 | 66 | 0.0 | 0.0 | 0.00 | 0.00 | 0.00 | 72 | 1002.5 | |
| 20260506092825 | 66 | 0.0 | 0.0 | 0.00 | 0.00 | 0.00 | 73 | 1002.5 | |
| 20260506091826 | 66 | 0.0 | 0.0 | 0.00 | 0.00 | 0.00 | 73 | 1002.5 | |
| 20260506090824 | 66 | 0.0 | 0.0 | 0.00 | 0.00 | 0.00 | 73 | 1002.5 | |
| 20260506085822 | 65 | 0.0 | 0.0 | 0.00 | 0.00 | 0.00 | 74 | 1002.5 | |
| 20260506084858 | 65 | 0.0 | 0.0 | 0.00 | 0.00 | 0.00 | 74 | 1002.4 | |
| 20260506083837 | 65 | 0.0 | 0.0 | 0.00 | 0.00 | 0.00 | 76 | 1002.4 | |
| 20260506082814 | 64 | 0.0 | 0.0 | 0.00 | 0.00 | 0.00 | 78 | 1002.4 | |
| 20260506081812 | 63 | 0.0 | 0.0 | 0.00 | 0.00 | 0.00 | 79 | 1002.3 | |
| 20260506080811 | 62 | 0.0 | 0.0 | 0.00 | 0.00 | 0.00 | 80 | 1002.2 | |
| 20260506072844 | 61 | 0.0 | 0.0 | 0.00 | 0.00 | 0.00 | 82 | 1002.0 | |
| 20260506071819 | 61 | 0.0 | 0.0 | 0.00 | 0.00 | 0.00 | 83 | 1001.8 | |
| 20260506070818 | 61 | 0.0 | 0.0 | 0.00 | 0.00 | 0.00 | 84 | 1001.9 | |
| 20260506061747 | 55 | 0.0 | 0.0 | 0.00 | 0.00 | 0.00 | 89 | 1002.2 | |
| 20260506060745 | 54 | 0.0 | 0.0 | 0.00 | 0.00 | 0.00 | 89 | 1002.2 | |
| 20260506050756 | 51 | 0.0 | 0.0 | 0.00 | 0.00 | 0.00 | 89 | 1002.3 | |
| 20260506044731 | 51 | 0.0 | 0.0 | 0.00 | 0.00 | 0.00 | 89 | 1002.3 | |
| 20260506043728 | 51 | 0.0 | 0.0 | 0.00 | 0.00 | 0.00 | 89 | 1002.4 | |
| 20260506042747 | 51 | 0.0 | 0.0 | 0.00 | 0.00 | 0.00 | 89 | 1002.4 | |
| 20260506041724 | 51 | 0.0 | 0.0 | 0.00 | 0.00 | 0.00 | 89 | 1002.4 | |
| 20260506040721 | 51 | 0.0 | 0.0 | 0.00 | 0.00 | 0.00 | 89 | 1002.4 | |
| 20260506035719 | 51 | 0.0 | 0.0 | 0.00 | 0.00 | 0.00 | 89 | 1002.4 | |
| 20260506034718 | 52 | 0.0 | 0.0 | 0.00 | 0.00 | 0.00 | 89 | 1002.4 | |
| 20260506033736 | 52 | 0.0 | 0.0 | 0.00 | 0.00 | 0.00 | 89 | 1002.5 | |
| 20260506032715 | 52 | 0.0 | 0.0 | 0.00 | 0.00 | 0.00 | 89 | 1002.5 | |
| 20260506031713 | 53 | 0.0 | 0.0 | 0.00 | 0.00 | 0.00 | 89 | 1002.6 | |
| 20260506030709 | 53 | 0.0 | 0.0 | 0.00 | 0.00 | 0.00 | 89 | 1002.7 | |
| 20260506025707 | 54 | 0.0 | 0.0 | 0.00 | 0.00 | 0.00 | 89 | 1002.9 | |
| 20260506024726 | 54 | 0.0 | 0.0 | 0.00 | 0.00 | 0.00 | 89 | 1002.9 | |
| 20260506023703 | 55 | 0.0 | 0.0 | 0.00 | 0.00 | 0.00 | 89 | 1003.0 | |
| 20260506022701 | 55 | 0.0 | 0.0 | 0.00 | 0.00 | 0.00 | 89 | 1003.2 | |
| 20260506021659 | 55 | 0.0 | 0.0 | 0.00 | 0.00 | 0.00 | 89 | 1003.2 | |
| 20260506020659 | 54 | 0.0 | 0.0 | 0.00 | 0.00 | 0.00 | 89 | 1003.1 | |
| 20260506015657 | 54 | 0.0 | 0.0 | 0.00 | 0.00 | 0.00 | 89 | 1003.2 | |
| 20260506014713 | 55 | 0.0 | 0.0 | 0.00 | 0.00 | 0.00 | 89 | 1003.1 | |
| 20260506013651 | 55 | 0.0 | 0.0 | 0.00 | 0.00 | 0.00 | 89 | 1003.1 | |
| 20260506012651 | 54 | 0.0 | 0.0 | 0.00 | 0.00 | 0.00 | 89 | 1003.1 | |
| 20260506011646 | 54 | 0.0 | 0.0 | 0.00 | 0.00 | 0.00 | 89 | 1003.1 | |
| 20260506010644 | 55 | 0.0 | 0.0 | 0.00 | 0.00 | 0.00 | 89 | 1003.1 | |
| 20260506005645 | 55 | 0.0 | 0.0 | 0.00 | 0.00 | 0.00 | 89 | 1003.2 | |
| 20260506004643 | 55 | 0.0 | 0.0 | 0.00 | 0.00 | 0.00 | 89 | 1003.3 | |
| 20260506003639 | 55 | 0.0 | 0.0 | 0.00 | 0.00 | 0.00 | 89 | 1003.4 | |
| 20260506002638 | 55 | 0.0 | 0.0 | 0.00 | 0.00 | 0.00 | 89 | 1003.6 | |
| 20260506001636 | 55 | 0.0 | 0.0 | 0.00 | 0.00 | 0.00 | 89 | 1003.6 | |
| 20260506000718 | 55 | 0.0 | 0.0 | 0.00 | 0.00 | 0.00 | 89 | 1003.6 | |
| 20260505235634 | 55 | 0.0 | 0.0 | 0.00 | 0.00 | 0.00 | 89 | 1003.7 | |
| 20260505234631 | 56 | 0.0 | 0.0 | 0.00 | 0.00 | 0.00 | 89 | 1003.8 | |
| 20260505233627 | 56 | 0.0 | 0.0 | 0.00 | 0.00 | 0.00 | 89 | 1003.9 | |
| 20260505232628 | 56 | 0.0 | 0.0 | 0.00 | 0.00 | 0.00 | 89 | 1003.8 | |
| 20260505231624 | 56 | 0.0 | 0.0 | 0.00 | 0.00 | 0.00 | 89 | 1004.0 | |
| 20260505230621 | 56 | 0.0 | 0.0 | 0.00 | 0.00 | 0.00 | 89 | 1004.0 | |
| 20260505225619 | 56 | 0.0 | 0.0 | 0.00 | 0.00 | 0.00 | 89 | 1004.1 | |
| 20260505224616 | 55 | 0.0 | 0.0 | 0.00 | 0.00 | 0.00 | 89 | 1004.1 | |
| 20260505223617 | 55 | 0.0 | 0.0 | 0.00 | 0.00 | 0.00 | 89 | 1004.1 | |
| 20260505222635 | 55 | 0.0 | 0.0 | 0.00 | 0.00 | 0.00 | 89 | 1004.1 | |
| 20260505221742 | 55 | 0.0 | 0.0 | 0.00 | 0.00 | 0.00 | 89 | 1004.1 | |
| 20260505220609 | 55 | 0.0 | 0.0 | 0.00 | 0.00 | 0.00 | 89 | 1004.0 | |
| 20260505215628 | 56 | 0.0 | 0.0 | 0.00 | 0.00 | 0.00 | 89 | 1003.9 | |
| 20260505214628 | 56 | 0.0 | 0.0 | 0.00 | 0.00 | 0.00 | 89 | 1004.0 | |
| 20260505213604 | 56 | 0.0 | 0.0 | 0.00 | 0.00 | 0.00 | 89 | 1004.0 | |
| 20260505212602 | 56 | 0.0 | 0.0 | 0.00 | 0.00 | 0.00 | 88 | 1004.0 | |
| 20260505211601 | 57 | 0.0 | 0.0 | 0.00 | 0.00 | 0.00 | 88 | 1004.0 | |
| 20260505210558 | 57 | 0.0 | 0.0 | 0.00 | 0.00 | 0.00 | 88 | 1004.0 | |
| 20260505205558 | 57 | 0.0 | 0.0 | 0.00 | 0.00 | 0.00 | 88 | 1003.9 | |
| 20260505204555 | 57 | 0.0 | 0.0 | 0.00 | 0.00 | 0.00 | 88 | 1003.9 | |
| 20260505203552 | 58 | 0.0 | 0.0 | 0.00 | 0.00 | 0.00 | 88 | 1004.0 | |
| 20260505202549 | 58 | 0.0 | 0.0 | 0.00 | 0.00 | 0.00 | 88 | 1003.8 | |
| 20260505201547 | 58 | 0.0 | 0.0 | 0.00 | 0.00 | 0.00 | 88 | 1003.8 | |
| 20260505200545 | 58 | 0.0 | 0.0 | 0.00 | 0.00 | 0.00 | 88 | 1003.7 | |
| 20260505195545 | 58 | 0.0 | 0.0 | 0.00 | 0.00 | 0.00 | 88 | 1003.6 | |
| 20260505194543 | 58 | 0.0 | 0.0 | 0.00 | 0.00 | 0.00 | 88 | 1003.5 | |
| 20260505193602 | 58 | 0.0 | 0.0 | 0.00 | 0.00 | 0.00 | 87 | 1003.6 | |
| 20260505192538 | 59 | 0.0 | 0.0 | 0.00 | 0.00 | 0.00 | 87 | 1003.6 |